Temp
-10 -10 -11 -11 -11 -11 -11 -11 -10 -10 -11 -11 -11 -11 -10 -9 -10 -10 -11 -12 -13 -13 -13 -13 -13 -13 -13 -12 -12 -12 -12 -12
-10 -11 -11 -12 -11 -12 -12 -12 -11 -11 -11 -11 -11 -10 -11 -11 -11 -10 -10 -11 -12 -13 -13 -13 -13 -13 -12 -12 -12 -12 -12 -11
-11 -12 -12 -13 -12 -12 -12 -12 -11 -11 -11 -11 -11 -11 -11 -11 -12 -11 -10 -11 -11 -12 -12 -12 -12 -12 -12 -12 -12 -12 -12 -11
-12 -12 -13 -13 -13 -13 -12 -12 -12 -12 -12 -12 -11 -11 -11 -11 -12 -11 -11 -12 -12 -12 -12 -12 -12 -12 -13 -13 -13 -13 -12 -12
-12 -13 -13 -13 -13 -13 -13 -12 -12 -12 -12 -12 -12 -12 -11 -12 -11 -12 -12 -12 -12 -12 -11 -12 -12 -12 -13 -13 -13 -13 -12 -12
-12 -13 -14 -14 -14 -14 -13 -13 -13 -13 -12 -12 -12 -12 -11 -11 -11 -11 -11 -12 -11 -11 -11 -11 -11 -12 -13 -13 -13 -13 -13 -12
-13 -14 -14 -14 -14 -14 -13 -13 -13 -13 -13 -12 -12 -12 -11 -11 -11 -11 -12 -12 -11 -11 -11 -11 -12 -13 -12 -13 -13 -13 -13 -12
-14 -14 -14 -14 -14 -14 -13 -13 -13 -13 -13 -13 -12 -12 -12 -11 -11 -11 -12 -12 -11 -11 -11 -11 -12 -12 -12 -13 -14 -13 -13 -13
-14 -15 -15 -15 -14 -14 -13 -13 -13 -13 -13 -13 -13 -12 -12 -12 -11 -11 -12 -12 -11 -11 -11 -11 -12 -12 -12 -13 -13 -13 -13 -13
-15 -15 -15 -15 -14 -14 -14 -13 -13 -13 -13 -13 -13 -12 -12 -12 -11 -12 -12 -12 -11 -11 -11 -12 -12 -11 -12 -12 -13 -13 -13 -13
-15 -15 -15 -15 -15 -14 -14 -14 -13 -13 -13 -13 -13 -12 -12 -11 -12 -12 -12 -12 -12 -12 -12 -12 -11 -11 -12 -12 -12 -12 -12 -12
-15 -16 -15 -15 -15 -14 -14 -13 -13 -13 -13 -13 -12 -12 -12 -12 -12 -13 -13 -12 -12 -12 -12 -12 -12 -11 -11 -11 -11 -12 -12 -12
-15 -16 -16 -15 -15 -14 -14 -14 -14 -13 -13 -12 -12 -12 -12 -12 -13 -12 -12 -12 -12 -12 -12 -13 -12 -11 -12 -12 -12 -12 -12 -12
-16 -16 -16 -15 -14 -14 -14 -14 -13 -13 -13 -12 -12 -12 -12 -12 -12 -12 -12 -12 -12 -12 -12 -12 -12 -12 -12 -12 -12 -12 -12 -13
-16 -16 -16 -15 -14 -14 -14 -14 -13 -13 -12 -12 -13 -13 -13 -13 -12 -13 -12 -13 -12 -12 -12 -12 -12 -12 -12 -12 -13 -12 -13 -13
-16 -16 -16 -15 -15 -14 -14 -14 -13 -13 -13 -13 -13 -13 -13 -13 -13 -13 -12 -12 -12 -13 -12 -13 -13 -12 -13 -13 -12 -12 -12 -12
-16 -16 -16 -15 -15 -15 -14 -14 -13 -13 -13 -13 -13 -14 -13 -12 -12 -12 -12 -12 -12 -12 -12 -12 -13 -13 -13 -13 -13 -13 -13 -13
-16 -16 -15 -15 -14 -15 -14 -14 -13 -13 -13 -13 -14 -14 -13 -13 -12 -12 -12 -12 -12 -13 -13 -13 -13 -13 -13 -13 -13 -13 -13 -13
-16 -16 -15 -15 -14 -15 -14 -14 -14 -13 -13 -13 -14 -14 -14 -13 -13 -12 -12 -13 -12 -13 -13 -13 -13 -13 -13 -13 -13 -13 -13 -13
-15 -16 -15 -15 -15 -15 -14 -14 -14 -14 -13 -13 -14 -14 -13 -14 -13 -13 -13 -13 -13 -13 -13 -13 -13 -13 -13 -13 -13 -13 -13 -13
Height
5785 5785 5784 5783 5782 5781 5781 5781 5781 5783 5779 5779 5779 5776 5776 5773 5768 5771 5772 5775 5778 5782 5785 5788 5792 5795 5798 5801 5803 5806 5810 5814
5778 5778 5777 5777 5776 5775 5774 5775 5774 5775 5774 5774 5773 5773 5770 5771 5763 5769 5770 5774 5774 5777 5780 5784 5788 5792 5795 5798 5800 5803 5805 5809
5773 5772 5771 5769 5770 5768 5768 5768 5768 5768 5768 5768 5768 5769 5768 5767 5765 5766 5766 5771 5774 5775 5779 5781 5785 5788 5791 5794 5797 5799 5802 5804
5767 5766 5765 5763 5763 5762 5761 5761 5761 5761 5762 5762 5763 5764 5764 5762 5764 5765 5768 5771 5773 5775 5776 5779 5782 5785 5787 5790 5792 5795 5798 5801
5759 5759 5759 5757 5757 5756 5755 5755 5756 5756 5757 5757 5756 5758 5759 5759 5758 5762 5762 5763 5766 5770 5772 5775 5777 5781 5784 5786 5789 5792 5794 5798
5753 5754 5753 5753 5752 5750 5749 5749 5750 5750 5752 5753 5752 5753 5754 5755 5755 5755 5757 5760 5761 5764 5768 5771 5775 5777 5778 5780 5786 5788 5793 5797
5746 5747 5747 5747 5746 5745 5744 5744 5744 5745 5747 5749 5748 5748 5749 5749 5750 5752 5754 5755 5755 5759 5763 5767 5770 5771 5773 5777 5781 5784 5788 5792
5739 5741 5740 5740 5740 5739 5738 5739 5739 5739 5742 5743 5743 5743 5745 5745 5745 5746 5747 5748 5752 5755 5756 5762 5765 5766 5768 5772 5776 5781 5783 5787
5732 5735 5734 5734 5734 5733 5733 5734 5734 5735 5737 5738 5737 5737 5738 5738 5739 5740 5742 5743 5745 5749 5753 5756 5760 5762 5763 5767 5772 5776 5779 5782
5726 5728 5728 5728 5728 5728 5727 5728 5728 5730 5731 5732 5732 5733 5733 5733 5734 5735 5736 5738 5740 5745 5748 5752 5754 5758 5761 5764 5768 5772 5776 5780
5719 5721 5722 5722 5723 5722 5722 5723 5723 5724 5726 5726 5727 5727 5728 5726 5728 5729 5730 5734 5738 5741 5745 5747 5751 5756 5758 5762 5766 5769 5773 5777
5712 5715 5717 5717 5717 5717 5718 5717 5718 5718 5720 5721 5722 5721 5722 5721 5721 5723 5725 5729 5732 5736 5739 5742 5746 5752 5755 5759 5763 5766 5769 5772
5707 5710 5711 5711 5712 5712 5713 5712 5714 5714 5715 5715 5715 5715 5715 5715 5715 5718 5720 5724 5728 5731 5734 5737 5742 5748 5752 5757 5760 5763 5765 5767
5701 5704 5705 5706 5707 5707 5708 5709 5709 5710 5710 5709 5709 5707 5706 5707 5709 5711 5715 5718 5722 5725 5730 5734 5737 5743 5748 5751 5755 5758 5760 5761
5695 5698 5700 5701 5702 5702 5704 5706 5706 5706 5705 5704 5702 5701 5700 5700 5700 5705 5708 5713 5717 5721 5725 5729 5733 5738 5743 5746 5749 5753 5753 5757
5689 5693 5695 5697 5696 5699 5701 5702 5703 5702 5701 5700 5697 5696 5696 5695 5696 5699 5702 5708 5712 5717 5720 5725 5728 5734 5737 5740 5743 5746 5750 5753
5684 5687 5690 5692 5692 5696 5698 5698 5700 5699 5698 5697 5694 5691 5690 5689 5690 5694 5698 5704 5709 5712 5717 5721 5725 5729 5733 5736 5739 5743 5746 5748
5678 5682 5685 5687 5689 5692 5694 5695 5697 5696 5695 5694 5692 5687 5686 5684 5685 5686 5693 5699 5703 5709 5712 5717 5721 5725 5729 5733 5736 5739 5741 5744
5672 5676 5681 5683 5685 5687 5691 5692 5693 5694 5693 5692 5690 5687 5684 5682 5683 5686 5690 5695 5699 5704 5709 5713 5717 5721 5725 5728 5731 5734 5737 5739
5667 5671 5676 5678 5681 5684 5687 5688 5690 5691 5690 5690 5689 5686 5685 5683 5682 5685 5688 5691 5697 5701 5706 5709 5714 5717 5720 5724 5727 5729 5731 5732
Wind_Speed
22 23 27 29 33 36 35 32 32 34 33 31 27 28 23 31 34 39 36 33 26 25 24 30 33 32 31 31 31 29 26 22
23 27 30 30 33 35 34 34 31 33 33 31 24 22 23 23 24 41 29 28 22 23 22 29 34 32 31 31 31 30 28 28
22 26 30 33 32 33 33 32 33 32 32 28 24 22 22 23 22 26 28 29 25 21 19 27 33 35 33 33 34 33 30 29
24 28 30 29 30 32 29 30 32 30 27 24 23 23 19 20 21 21 31 26 25 26 23 25 31 35 37 35 37 34 33 28
27 28 28 27 32 28 27 30 31 27 26 24 22 22 20 23 20 22 22 28 23 33 27 24 26 32 36 39 37 35 36 29
28 29 28 28 31 29 27 31 31 26 27 25 23 22 22 23 21 24 22 27 26 29 37 24 25 25 34 40 38 38 32 30
31 32 30 31 33 32 29 33 31 27 28 25 26 23 25 25 23 23 26 24 23 27 34 32 28 26 31 35 41 38 33 31
34 32 28 31 31 31 30 34 31 30 31 28 26 27 26 22 22 24 23 23 31 28 28 35 31 29 29 36 37 36 34 36
32 28 27 28 28 30 32 34 32 32 31 29 28 28 27 26 23 22 23 23 27 28 30 36 31 27 27 34 35 36 36 34
29 27 27 28 30 28 33 35 32 32 31 30 29 27 27 28 28 24 23 24 29 30 31 35 29 24 22 29 34 33 33 34
29 27 27 29 29 28 33 34 31 27 28 30 29 29 28 27 28 24 25 28 29 33 35 35 31 20 21 23 29 29 28 28
29 27 26 28 27 28 31 28 22 21 24 26 28 29 28 29 27 25 27 30 24 38 36 39 37 23 22 23 26 29 32 30
28 27 26 27 26 27 26 21 19 20 22 25 27 30 31 31 28 27 31 31 33 31 39 39 39 32 26 25 25 28 31 34
26 26 27 26 27 24 22 20 18 19 20 22 25 27 29 31 31 32 35 31 31 29 35 40 43 37 29 28 24 24 24 24
26 26 29 25 23 21 19 18 15 18 17 21 24 25 24 26 28 24 30 27 26 26 29 37 41 40 35 30 23 23 24 22
27 29 28 24 20 21 19 15 15 14 16 15 17 21 21 25 28 29 25 26 32 29 30 35 37 36 27 21 24 25 25 26
29 30 26 23 20 21 20 14 14 13 14 14 14 20 18 20 27 33 32 33 29 31 32 36 39 31 19 20 20 22 21 22
32 31 26 21 20 22 18 14 12 11 11 11 9 14 13 13 18 28 32 30 32 29 27 33 27 24 25 21 20 18 21 25
34 30 23 20 23 22 18 15 11 10 7 6 5 7 11 10 15 25 27 33 28 29 34 32 28 27 24 23 21 23 22 23
31 29 23 21 24 22 20 15 13 12 11 9 4 5 5 6 9 14 15 25 25 26 31 29 28 27 27 28 27 27 27 25
Wind_Direction
298 294 288 283 283 280 281 278 275 276 268 268 275 279 277 243 262 248 244 228 218 225 227 220 220 214 211 209 212 216 217 211
291 290 287 282 276 279 278 277 272 269 265 271 270 265 266 265 261 220 243 223 220 221 217 215 215 214 214 213 215 218 217 220
284 285 284 282 282 280 277 277 274 268 265 267 260 261 265 270 275 216 227 221 223 215 212 217 217 219 216 216 217 217 215 220
281 278 283 284 278 280 278 278 275 268 264 261 258 260 262 264 267 235 231 226 232 216 215 218 221 224 218 218 216 214 215 220
274 280 281 277 279 282 285 278 273 263 257 257 255 260 266 258 248 257 264 240 261 226 222 207 217 230 228 223 219 219 216 215
276 277 273 274 276 285 283 279 270 258 252 257 255 260 269 268 256 266 262 257 255 228 221 222 221 225 231 229 222 223 221 214
270 272 275 270 274 283 284 281 269 255 256 257 257 264 270 272 263 263 254 253 234 222 221 228 219 222 231 229 225 225 227 220
264 271 274 271 275 285 282 280 266 259 257 259 262 265 268 261 268 261 254 246 217 226 215 218 212 223 229 225 224 220 222 227
262 267 269 273 278 287 281 277 266 255 256 260 264 268 268 264 269 265 254 237 211 210 209 211 216 223 230 220 220 221 224 230
255 261 265 272 280 283 278 274 266 253 256 259 264 265 267 264 263 268 247 227 200 207 207 202 213 223 222 217 217 221 229 236
250 257 262 270 282 278 275 274 266 254 255 259 261 262 261 261 259 260 239 224 218 211 204 209 219 222 223 221 218 224 232 244
247 255 262 276 279 274 274 274 258 254 253 257 261 263 261 258 255 247 232 218 227 218 215 212 216 217 222 224 228 231 237 244
247 254 265 274 272 272 275 262 253 254 259 263 268 265 259 254 252 237 217 217 221 225 219 217 222 228 228 236 242 249 250 248
247 250 261 269 266 273 269 252 253 260 263 269 269 266 256 251 245 229 216 226 232 228 224 221 227 230 242 239 247 245 243 242
241 246 259 262 263 276 256 249 255 260 271 276 268 265 248 248 232 224 223 223 222 226 229 224 228 229 238 245 242 236 238 236
236 243 256 257 268 269 249 246 254 260 269 290 278 265 242 240 232 227 231 218 219 221 217 220 226 231 234 243 230 234 234 240
231 240 251 257 267 259 246 247 252 260 268 281 287 268 254 237 230 225 218 223 217 227 221 226 227 233 218 222 217 224 228 238
227 238 247 254 262 252 242 243 246 256 259 276 290 311 238 220 222 209 214 209 221 223 221 216 218 211 211 219 229 243 249 256
224 230 241 248 258 248 241 237 234 237 232 257 325 326 329 240 209 200 209 210 217 226 216 220 222 219 223 222 233 240 257 261
223 227 231 245 254 244 239 232 231 223 219 240 280 319 293 283 212 200 218 201 203 211 216 221 225 230 238 243 243 247 257 261